This is the latest recevied weather packets stored in our database for station/object KF6ILA. If no packets are shown the sender has not sent any weather packets the latest 1 day(s).
| Time | Temp. | Humidity | Pressure | Rain* | Wind** | Luminosity | Snow |
|---|---|---|---|---|---|---|---|
| 1777971927 | 5° C | 99% | 1010 hPa | 2.54 mm | 5.36 m/s, 262° | 0 W/m² | - |
| 1777971631 | 5° C | 99% | 1009.9 hPa | 2.03 mm | 4.47 m/s, 258° | 0 W/m² | - |
| 1777971334 | 5.56° C | 99% | 1010 hPa | 1.52 mm | 6.26 m/s, 272° | 0 W/m² | - |
| 1777971038 | 5.56° C | 99% | 1010.1 hPa | 1.27 mm | 5.36 m/s, 270° | 0 W/m² | - |
| 1777970740 | 5.56° C | 99% | 1010 hPa | 1.02 mm | 2.68 m/s, 273° | 0 W/m² | - |
| 1777970444 | 5.56° C | 99% | 1010.2 hPa | 0.76 mm | 4.47 m/s, 250° | 0 W/m² | - |
| 1777970146 | 5.56° C | 99% | 1010 hPa | 0.51 mm | 4.02 m/s, 239° | 0 W/m² | - |
| 1777969849 | 5.56° C | 99% | 1010 hPa | 0.51 mm | 5.36 m/s, 257° | 0 W/m² | - |
| 1777969552 | 5.56° C | 99% | 1010.2 hPa | 0.51 mm | 4.47 m/s, 266° | 0 W/m² | - |
| 1777969254 | 5.56° C | 99% | 1010.3 hPa | 0.51 mm | 5.36 m/s, 258° | 0 W/m² | - |
| 1777968957 | 5° C | 99% | 1010.2 hPa | 0.51 mm | 6.26 m/s, 268° | 0 W/m² | - |
| 1777968661 | 5° C | 99% | 1010.4 hPa | 0.25 mm | 6.71 m/s, 269° | 0 W/m² | - |
| 1777968364 | 5° C | 99% | 1010.4 hPa | 0 mm | 5.36 m/s, 266° | 0 W/m² | - |
| 1777968067 | 5° C | 99% | 1010.6 hPa | 0 mm | 5.36 m/s, 268° | 0 W/m² | - |
| 1777967770 | 5° C | 99% | 1010.6 hPa | 0 mm | 7.15 m/s, 274° | 0 W/m² | - |
| 1777967231 | 4.44° C | 99% | 1010.5 hPa | 0 mm | 8.05 m/s, 274° | 0 W/m² | - |
| 1777967176 | 4.44° C | 99% | 1010.5 hPa | 0 mm | 8.05 m/s, 274° | 0 W/m² | - |
| 1777966631 | 4.44° C | 99% | 1010.5 hPa | 0 mm | 7.6 m/s, 264° | 0 W/m² | - |
| 1777966582 | 4.44° C | 99% | 1010.5 hPa | 0 mm | 7.6 m/s, 264° | 0 W/m² | - |
| 1777966319 | 5° C | 99% | 1010.2 hPa | 0 mm | 8.94 m/s, 271° | 0 W/m² | - |
| 1777966285 | 5° C | 99% | 1010.2 hPa | 0 mm | 8.94 m/s, 271° | 0 W/m² | - |
| 1777965987 | 5° C | 99% | 1010.2 hPa | 0 mm | 8.05 m/s, 264° | 0 W/m² | - |
| 1777965690 | 5° C | 99% | 1010.3 hPa | 0 mm | 8.94 m/s, 266° | 0 W/m² | - |
| 1777965459 | 5° C | 99% | 1010.4 hPa | 0 mm | 7.15 m/s, 268° | 0 W/m² | - |
| 1777965394 | 5° C | 99% | 1010.4 hPa | 0 mm | 7.15 m/s, 268° | 0 W/m² | - |
* Rain latest hour (hover to see other rain measurements)
** Current wind speed in m/s (hover to see current wind gust speed)